Location: Beekmeers
(50.8953°N, 3.6968°E)
Time: 12:17:22
(UTC+00:00)

SENTINEL 1B - Pass Details

Date: 13 October 2025
Orbit: 561 x 585 km, 98.1° (Epoch: 16 November)

Event Time Altitude Azimuth Distance (km) Brightness Sun altitude
Exits shadow 19:22:21 37° 18° (NNE) 934 6.2 -23.6°
Drops below altitude 10° 19:25:07 10° 354° (N) 1,926 8.1 -24.0°
Sets 19:27:20 0° 350° (N) 2,830 9.1 -24.3°
